Location: Haulchin
(50.3172°N, 3.4360°E)
Time: 12:56:31
(UTC+00:00)

Cosmos 841 Rocket - Pass Details

Date: 23 May 2024
Orbit: 744 x 770 km, 74.0° (Epoch: 16 June)

Event Time Altitude Azimuth Distance (km) Brightness Sun altitude
Rises 00:23:43 0° 338° (NNW) 3,231 7.7 -18.5°
Reaches altitude 10° 00:26:11 10° 345° (NNW) 2,305 6.9 -18.4°
Maximum altitude 00:31:13 46° 59° (ENE) 1,020 4.4 -18.2°
Drops below altitude 10° 00:36:15 10° 133° (SE) 2,305 5.7 -18.1°
Enters shadow 00:36:24 - 133° (SE) 2,356 5.7 -18.1°
